Change the Weather History Date:

Monday, September 1, 2014

  Actual Average Record
Temperature  
Mean Temperature 72 °F 71 °F  
Max Temperature 79 °F 81 °F 97 °F (1975)
Min Temperature 65 °F 60 °F 38 °F (1949)
Degree Days  
Heating Degree Days 0 1  
Month to date heating degree days 0 1  
Since 1 July heating degree days 7 9  
Cooling Degree Days 7 6  
Month to date cooling degree days 7 6  
Year to date cooling degree days 824 844  
Growing Degree Days 21 (Base 50)    
Moisture  
Dew Point 64 °F    
Average Humidity 79    
Maximum Humidity 93    
Minimum Humidity 64    
Precipitation  
Precipitation 0.01 in 0.15 in 1.30 in (1977)
Month to date precipitation 0.01 0.15  
Sea Level Pressure  
Sea Level Pressure 29.81 in    
Wind  
Wind Speed 10 mph (WSW)    
Max Wind Speed 23 mph    
Max Gust Speed 30 mph    
Visibility 10 miles    
Events Rain , Thunderstorm    
T = Trace of Precipitation, MM = Missing Value Source: NWS Daily Summary

Daily Weather History Graph

Daily Weather History Graph

Search for Another Location

Airport or City:

Trip Planner

Search our weather history database for the weather conditions in past years. The results will help you decide how hot, cold, wet, or windy it might be!

Date:

Astronomy

Sep. 01, 2014 Rise Set
Actual Time 6:42 AM CDT 7:47 PM CDT
Civil Twilight 6:14 AM CDT 8:15 PM CDT
Nautical Twilight 5:41 AM CDT 8:49 PM CDT
Astronomical Twilight 5:06 AM CDT 9:23 PM CDT
Moon 1:31 PM CDT (9/1) 11:47 PM CDT (9/1)
Length of Visible Light 14h 01m
Length of Day
13h 04m
Waxing Crescent, 42% of the Moon is Illuminated
Sep 1
Waxing Crescent
Sep 2
First Quarter
Sep 8
Full
Sep 15
Last Quarter
Sep 24
New

Hourly Weather History & Observations

Time (CDT) Temp. Dew Point Humidity Pressure Visibility Wind Dir Wind Speed Gust Speed Precip Events Conditions
12:19 AM 66.9 °F 64.0 °F 90% 29.79 in 8.0 mi SSE 9.2 mph - 0.10 in Rain , Thunderstorm Thunderstorms and Rain
12:34 AM 66.9 °F 64.0 °F 90% 29.69 in 6.0 mi SE 19.6 mph 25.3 mph 0.14 in Rain Rain
12:53 AM 66.9 °F 64.0 °F 90% 29.68 in 10.0 mi SSE 13.8 mph 23.0 mph 0.15 in   Scattered Clouds
1:53 AM 68.0 °F 64.0 °F 87% 29.75 in 10.0 mi SW 15.0 mph 26.5 mph 0.00 in Thunderstorm Thunderstorm
1:59 AM 68.0 °F 64.0 °F 87% 29.77 in 10.0 mi South 12.7 mph 26.5 mph N/A   Partly Cloudy
2:53 AM 66.9 °F 64.0 °F 90% 29.78 in 10.0 mi SW 11.5 mph - N/A   Mostly Cloudy
3:53 AM 66.9 °F 63.0 °F 87% 29.72 in 10.0 mi South 11.5 mph 21.9 mph 0.01 in Rain Light Rain
4:50 AM 66.2 °F 62.6 °F 88% 29.74 in 10.0 mi West 9.2 mph 20.7 mph 0.00 in   Partly Cloudy
4:53 AM 66.0 °F 63.0 °F 90% 29.71 in 10.0 mi WSW 8.1 mph 20.7 mph 0.00 in   Partly Cloudy
5:53 AM 66.0 °F 63.0 °F 90% 29.74 in 10.0 mi SSW 10.4 mph - N/A   Clear
6:23 AM 66.0 °F 63.0 °F 90% 29.79 in 10.0 mi WSW 9.2 mph - N/A   Mostly Cloudy
6:51 AM 64.4 °F 62.6 °F 94% 29.79 in 10.0 mi WSW 9.2 mph - N/A   Scattered Clouds
6:53 AM 64.9 °F 63.0 °F 93% 29.77 in 10.0 mi SW 10.4 mph - N/A   Scattered Clouds
7:53 AM 66.0 °F 64.0 °F 93% 29.80 in 10.0 mi WSW 12.7 mph - N/A   Overcast
8:00 AM 66.9 °F 64.0 °F 90% 29.82 in 10.0 mi WSW 10.4 mph - N/A   Overcast
8:51 AM 68.0 °F 64.4 °F 88% 29.83 in 10.0 mi WSW 13.8 mph - N/A   Overcast
8:53 AM 68.0 °F 64.0 °F 87% 29.81 in 10.0 mi WSW 15.0 mph - N/A   Overcast
9:07 AM 69.1 °F 64.0 °F 84% 29.83 in 10.0 mi WSW 16.1 mph 24.2 mph N/A   Overcast
9:23 AM 69.1 °F 64.0 °F 84% 29.84 in 10.0 mi WSW 19.6 mph 26.5 mph N/A   Mostly Cloudy
10:53 AM 72.0 °F 64.9 °F 78% 29.83 in 10.0 mi West 17.3 mph - N/A   Mostly Cloudy
11:53 AM 73.9 °F 64.9 °F 73% 29.83 in 10.0 mi WSW 12.7 mph - N/A   Mostly Cloudy
12:25 PM 73.9 °F 64.9 °F 73% 29.85 in 10.0 mi WSW 15.0 mph - N/A   Partly Cloudy
12:53 PM 75.0 °F 64.9 °F 71% 29.83 in 10.0 mi WSW 13.8 mph - N/A   Partly Cloudy
1:53 PM 78.1 °F 66.0 °F 66% 29.84 in 10.0 mi WSW 15.0 mph 19.6 mph N/A   Partly Cloudy
2:53 PM 77.0 °F 64.9 °F 66% 29.85 in 10.0 mi West 16.1 mph - N/A   Partly Cloudy
3:53 PM 75.9 °F 64.0 °F 67% 29.85 in 10.0 mi West 10.4 mph - N/A   Clear
4:53 PM 75.0 °F 64.9 °F 71% 29.86 in 10.0 mi WSW 9.2 mph - 0.00 in   Partly Cloudy
5:53 PM 73.9 °F 66.0 °F 76% 29.86 in 10.0 mi SW 5.8 mph - N/A   Clear
6:53 PM 73.0 °F 66.0 °F 79% 29.85 in 10.0 mi SW 4.6 mph - N/A   Clear
7:53 PM 70.0 °F 66.9 °F 90% 29.87 in 10.0 mi WNW 6.9 mph - N/A   Clear
8:17 PM 70.0 °F 66.0 °F 87% 29.88 in 10.0 mi West 4.6 mph - N/A   Partly Cloudy
8:53 PM 69.1 °F 66.0 °F 90% 29.87 in 10.0 mi WNW 4.6 mph - N/A   Clear
9:53 PM 70.0 °F 64.9 °F 84% 29.84 in 10.0 mi South 4.6 mph - N/A   Clear
10:53 PM 66.0 °F 64.0 °F 93% 29.87 in 10.0 mi Calm Calm - N/A   Clear
11:53 PM 66.0 °F 64.0 °F 93% 29.89 in 9.0 mi Calm Calm - N/A   Clear